Regional Weather Roundup
Issued by NWS Northern Indiana

Home | Current Version | Previous Version | Text Only | Print | Product List | Glossary Off
Versions: 1 2 3 4 5 6 7 8 9 10 11 12 13 14 15 16 17 18 19 20 21 22 23 24 25 26 27 28 29 30 31 32 33 34 35 36 37 38 39 40 41 42 43 44 45 46 47 48 49 50

000
ASUS43 KIWX 222200
RWRIWX

KIWX WEATHER ROUNDUP
NATIONAL WEATHER SERVICE NORTHERN INDIANA
600 PM EDT MON MAY 22 2017

NOTE: "FAIR" INDICATES FEW OR NO CLOUDS BELOW 12,000 FEET WITH NO
SIGNIFICANT WEATHER AND/OR OBSTRUCTIONS TO VISIBILITY.

* THESE STATIONS ARE NOT UNDER NWS QUALITY CONTROL. THEY ALSO MAY NOT
  REPORT WEATHER SUCH AS PRECIPITATION OR FOG.

INZ001>027-222300-
NORTHERN INDIANA

CITY           SKY/WX    TMP DP  RH WIND       PRES   REMARKS
GARY*          PTSUNNY   75  32  20 SW17G29   29.92F
MICHIGAN CITY* CLOUDY    70  45  40 SW14G20   29.94F
SOUTH BEND     SUNNY     70  46  42 SW14      29.96F
ELKHART*       MOSUNNY   72  45  37 SW12      29.96F
GOSHEN         MOSUNNY   69  46  43 SW16      29.97F
MONTICELLO*    PTSUNNY   71  45  38 SW14      29.98F
ANGOLA*        MOSUNNY   70  63  78 SW12      29.98F
FORT WAYNE     MOSUNNY   70  48  45 SW13      30.01F
PERU/GRISSOM   SUNNY     70  50  48 SW9       29.99F

$$
INZ028>050-222300-
CENTRAL INDIANA

CITY           SKY/WX    TMP DP  RH WIND       PRES   REMARKS
LAFAYETTE      MOSUNNY   69  47  45 SW10      29.99F
KOKOMO*        SUNNY     70  48  45 SW12G18   30.01F
MUNCIE*        SUNNY     71  42  35 VRB5      30.01F
INDIANAPOLIS   MOSUNNY   70  45  40 S5        30.01F

$$
MIZ043>046-050>051-056>058-064>065-071>073-077>080-222300-
SOUTHWEST LOWER MICHIGAN

CITY           SKY/WX    TMP DP  RH WIND       PRES   REMARKS
BATTLE CREEK   MOSUNNY   70  46  42 W15G22    29.96F
BENTON HARBOR  SUNNY     72  43  35 SW15      29.93F
COLDWATER*     MOSUNNY   67  45  45 SW12      29.97F
HILLSDALE*     PTSUNNY   66  45  45 SW8G18    29.98S
HOLLAND        PTSUNNY   66  45  46 SW13      29.94F
GRAND RAPIDS   CLOUDY    67  46  47 W18       29.94S
KALAMAZOO      MOSUNNY   70  44  39 SW9       29.95F
STURGIS*       SUNNY     68  48  48 SW9       29.96F
THREE RIVERS*  FAIR      70  43  38 W7        29.96F

$$
OHZ001>008-015>018-024>025-222300-
NORTHWEST OHIO

CITY           SKY/WX    TMP DP  RH WIND       PRES   REMARKS
DEFIANCE       MOSUNNY   69  44  40 W9        30.00S
FINDLAY        SUNNY     70  44  39 W7        30.00F
TOLEDO EXPRESS SUNNY     70  44  39 W16G24    29.99S
TOLEDO METCALF SUNNY     70  45  40 SW16G22   30.00S
LIMA           MOSUNNY   68  47  46 SW7       30.02F

$$
AND FOR LAKE MICHIGAN COASTAL AND OPEN LAKE BUOY OBSERVATIONS

STATION/POSITION TEMP    WIND        PRES    VSBY  WAVE
                 AIR SEA DIR/SP/G                  HT/PER
                 (F)     (DEG/KT/KT) (MB)    (MI)  (FT/S)
CALUMET HARBOR    73     210/ 13/ 21 1012.5F
MICHIGAN CITY     70     190/ 17/ 20   N/A
BURNS HARBOR      71     190/ 18/ 24 1013.5F
SOUTH LAKE BUOY   51 45  170/ 12/ 12 1013.6          1/ 3
4 MI NW BRIDGMAN  61 56  190/  2/  4 1013.8F         1
MICHIGAN CITY     64 54  200/ 10/ 12   N/A           1/ 3

$$
&&



USA.gov is the U.S. government's official web portal to all federal, state and local government web resources and services.